STARLINK-34091, 63808

Orbit data source: Space-Track

STARLINK-34091, 63808 is a payload satellite owned by SpaceX/Seattle (US) in LEO that was launched on Sun, 04 May 2025 UTC via an FALCON 9 launch vehicle from the Air Force Eastern Test Range (AFETR). Payload-class satellites include a variety of spacecraft equipped with specific instruments for various scientific and technological missions. These include communications satellites like Starlink; space stations such as the ISS; scientific satellites like the Hubble; Earth observation satellites from companies like Planet Labs, Umbra, and HawkEye 360; GPS; miniature CubeSats for education and research; and military/defense satellites.

Loading next visibility...
Identifier
63808, 2025-092E
Orbit
LEO
Country
Flag of USUS
Related business
Manufacturer
SpaceX/Seattle
Mission
Operational Commercial Communications
Bus & Motor
STARLINK V2MO, Unknown motor
Mass
575 kg wet, ~530 kg dry
Launch date (UTC)
2025-05-04 (7 months ago)
Launch vehicle
FALCON 9
Launch site
Air Force Eastern Test Range (AFETR)
Object type
Payload
Rocket body
Debris
Shape & HBR
Box + 2 Pan, 17.7 m
Radar Cross Section
36.964 m², Large (>1 m²)

Expand to show TLE details & history
Last TLE update: 15 hours ago

TLE from 15 hours ago
0 STARLINK-34091
1 63808U 25092E   25346.92413823  .00034146  00000-0  12432-2 0  9997
2 63808  43.0037 302.6692 0002410 270.0666  89.9910 15.27615544 35392
Epoch: 2025-12-12T22:10Z
TLE epoch observation values (Epoch: 2025-12-12T22:10:45.543Z)
Latitude
0.00003°
Longitude
-111.87931°
Altitude
482.719 km
Speed
7.626 km/s
True Right ascension
20h 10m 40s
True Declination
0° 00' 00"
Sunlit
Object was in daylight at epoch
Visualization orbit readout
Latitude
Unknown
Longitude
Unknown
Altitude
Unknown
Speed
Unknown
Apparent Right ascension
Unknown
Apparent Declination
Unknown
Sunlit
N/A
Visualization observer readout
Local Sidereal Time
11:35:09
Azimuth
Unknown
Elevation
Unknown
Doppler factor
Unknown
Orbital elements
Apogee altitude
486.541 km
Perigee altitude
483.233 km
Semi-major axis
6,863.024 km
Eccentricity
0.00024
Inclination
43.0037°
RAAN
302.6692°
Arg. of periapsis
270.0666°
True anomaly
90.01862°
Mean anomaly
89.991°
Eccentric anomaly
90.00481°
Mean motion
3.81742 °/min
Orbital period
94.3 mins
BSTAR
0.0012432
Loading maneuver chart data...
Computing Atmospheric mass density...
Loading historical data...
Loading historical data...
Loading historical data...
Loading historical data...
Loading historical data...
Loading historical data...
Loading historical data...

Documentation

Showing up to 5 results
|